Regional Weather Roundup
Issued by NWS

Home | Current Version | Previous Version | Graphics & Text | Print | Product List | Glossary Off
Versions: 1 2 3 4 5 6 7 8 9 10 11 12 13 14 15 16 17 18 19 20 21 22 23 24 25 26 27 28 29 30 31 32 33 34 35 36 37 38 39 40 41 42 43 44 45 46 47 48 49 50

000
ASUS43 KMPX 011110
RWRMN
WEATHER ROUNDUP FOR MINNESOTA
NATIONAL WEATHER SERVICE TWIN CITIES/CHANHASSEN MN
600 AM CDT FRI AUG 01 2014


NOTE: "FAIR" INDICATES FEW OR NO CLOUDS BELOW 12,000 FEET WITH NO
SIGNIFICANT WEATHER AND/OR OBSTRUCTIONS TO VISIBILITY. N/A MEANS
CURRENT SKY AND/OR WEATHER CONDITIONS ARE NOT AVAILABLE.

MNZ060>063-068>070-011200-
   Twin Cities Metro

CITY           SKY/WX    TMP DP  RH WIND       PRES   REMARKS
TWIN CITIES    CLEAR     65  60  84 CALM      30.04R
ST PAUL        CLEAR     64  61  90 CALM      30.04R
CRYSTAL        CLEAR     63  58  83 CALM      30.03R
BLAINE         CLEAR     63  61  94 CALM      30.04R
LAKEVILLE      CLEAR     61  57  88 W3        30.05R
EDEN PRAIRIE   CLEAR     61  59  93 SW5       30.04R
SOUTH ST PAUL  CLEAR     65  59  80 CALM      30.04R
LAKE ELMO      FAIR      59  57  94 CALM      30.05R
$$
MNZ001>005-007-008-013>017-022>024-027-028-011200-
   Northwest Minnesota

CITY           SKY/WX    TMP DP  RH WIND       PRES   REMARKS
BEMIDJI        CLEAR     57  56  96 W3        30.05R
HALLOCK        CLEAR     55  54  94 CALM      30.04S FOG
ROSEAU         CLEAR     54  48  82 NW5       30.04R
WARROAD        CLEAR     54  48  82 CALM      30.04R
THIEF RVR FALL CLEAR     57  55  94 CALM      30.05R
CROOKSTON      FOG       57  57 100 CALM      30.05R VSB 1/4
FOSSTON        FOG       54  52  94 S5        30.06R VSB 1/4
DETROIT LAKES  PTCLDY    64  63  94 CALM      30.07R
MOORHEAD       PTCLDY    63  63 100 CALM      30.04S
PARK RAPIDS    MOCLDY    58  56  93 CALM      30.05R
$$
MNZ006-009>011-018-025>026-011200-
   North Central Minnesota

CITY           SKY/WX    TMP DP  RH WIND       PRES   REMARKS
BAUDETTE       PTCLDY    54  53  97 CALM      30.04R FOG
FLAG ISLAND    CLEAR     64  61  88 NE3       30.02R
INTL FALLS     CLEAR     46  45  96 CALM      30.03R
WASKISH        CLEAR     54  54 100 CALM      30.03R FOG
BIG FORK       PTCLDY    50  48  93 CALM      30.05R
LONGVILLE      PTCLDY    54  54 100 CALM      30.05R FOG
GRAND RAPIDS   MOCLDY    55  52  88 CALM      30.05R
CRANE LAKE     CLEAR     45  45 100 CALM      30.06R FOG
ORR            PTCLDY    46  45  93 CALM      30.02S FOG
COOK           FOG       46  46 100 CALM      30.05R VSB 1/2
$$
MNZ012-019>021-037-011200-
   Northeast Minnesota

CITY           SKY/WX    TMP DP  RH WIND       PRES   REMARKS
DULUTH         CLEAR     54  51  90 N3        30.04R
ELY            CLEAR     45  43  93 CALM      30.05R FOG
HIBBING        FOG       48  45  89 CALM      30.05R VSB 3/4
EVELETH          N/A     45  45 100 CALM      30.06R FOG
DULUTH HARBOR  PTCLDY    59  57  94 CALM      30.04R
TWO HARBORS    CLEAR     52  46  82 N3        30.03R
SILVER BAY     CLEAR     46  46 100 N3        30.03R
GRAND MARAIS     N/A     54  50  86 CALM      30.04R
G MARAIS ARPRT CLEAR     46  43  87 CALM      30.07R
$$
MNZ029>031-032-039>041-046>048-054>057-064-011200-
   West Central Minnesota

CITY           SKY/WX    TMP DP  RH WIND       PRES   REMARKS
FERGUS FALLS   CLEAR     61  57  88 CALM      30.05S
WHEATON        CLEAR     55  55 100 W3        30.08R
MORRIS         CLEAR     55  55 100 CALM      30.05R FOG
ALEXANDRIA     PTCLDY    63  61  93 CALM      30.07R
ELBOW LAKE     FAIR      59  58  95 W3        30.06R
WADENA         MOCLDY    55  55 100 W6        30.06R FOG
GLENWOOD       CLEAR     61  59  94 W5        30.07R
APPLETON       CLEAR     57  55  94 CALM      30.05S
BENSON         FOG       54  54 100 CALM      30.06R VSB 1/2
ORTONVILLE     CLEAR     61  55  82 CALM      30.06R
MADISON        CLEAR     61  55  82 W3        30.06R
WILLMAR        FAIR      57  54  88 CALM      30.08R
$$
MNZ033>034-036-042>043-049>051-058-059-011200-
   Central Minnesota

CITY           SKY/WX    TMP DP  RH WIND       PRES   REMARKS
ST CLOUD       FOG       57  55  94 CALM      30.04S VSB 1/2
SAUK CENTRE    FAIR      56  55  95 CALM      30.06R
PAYNESVILLE    CLEAR     51  52 100 SW3       30.06S FOG
AITKIN         MOCLDY    54  48  82 CALM      30.04R HAZE
PINE RIVER     PTCLDY    52  52 100 CALM      30.08R
BRAINERD       PTCLDY    53  53 100 CALM      30.05S FOG
STAPLES        CLEAR     55  55 100 W1        30.05S
LONG PRAIRIE   FAIR      55  55 100 CALM      30.06S FOG
LITTLE FALLS   FOG       54  54 100 CALM      30.05S VSB 1/2
LITCHFIELD     MOCLDY    64  61  88 W3        30.06R
BUFFALO        CLEAR     63  58  84 CALM      30.05S
MAPLE LAKE     CLEAR     60  58  92 CALM      30.05S
$$
MNZ037-044-045-052-053-011200-
   East Central Minnesota

CITY           SKY/WX    TMP DP  RH WIND       PRES   REMARKS
PRINCETON      FOG       57  55  94 CALM      30.05R VSB 1/2
MORA             N/A     55  54  94 CALM      30.06R FOG
CAMBRIDGE      CLEAR     61  54  77 CALM      30.02R
RUSH CITY      PTCLDY    57  56  95 CALM      30.03S FOG
MOOSE LAKE       N/A     52  50  93 CALM      30.03R FOG
HINCKLEY       FAIR      55  55 100 CALM      30.04R FOG
CLOQUET        CLEAR     54  52  94 NW3       30.05R
MCGREGOR       CLEAR     54  52  94 CALM      30.06R
$$
MNZ071>073-080-081-089-090-097-098-011200-
   Southwest Minnesota

CITY           SKY/WX    TMP DP  RH WIND       PRES   REMARKS
MONTEVIDEO     CLEAR     57  54  88 CALM      30.07R
GRANITE FALLS  CLEAR     55  54  95 W3        30.08R
CANBY          CLEAR     58  54  86 W3        30.07S
MARSHALL       CLEAR     57  52  82 CALM      30.06R
REDWOOD FALLS  CLEAR     60  55  83 W3        30.06R
OLIVIA         CLEAR     57  54  88 CALM      30.06R
PIPESTONE      CLEAR     57  54  88 CALM      30.09R
WINDOM         FOG       54  52  94 CALM      30.08S VSB 3/4
WORTHINGTON    CLEAR     55  54  94 W3        30.09R
JACKSON        CLEAR     57  54  88 CALM      30.08S
TRACY          CLEAR     61  56  84 SW6       30.08R
SLAYTON        CLEAR     56  55  98 CALM      30.09R
$$
MNZ065>067-074>077-082>085-091>093-011200-
   South Central Minnesota

CITY           SKY/WX    TMP DP  RH WIND       PRES   REMARKS
MANKATO        CLEAR     57  54  88 CALM      30.06S
NEW ULM        CLEAR     55  55 100 CALM      30.06S
ST JAMES       CLEAR     54  52  94 CALM      30.07S
FAIRMONT       CLEAR     57  54  88 W5        30.07S
GLENCOE        CLEAR     60  56  85 CALM      30.05S
FARIBAULT      CLEAR     57  54  88 CALM      30.06S
OWATONNA       CLEAR     55  54  94 CALM      30.07R
WASECA         CLEAR     50  46  87 CALM      30.08S
ALBERT LEA     CLEAR     55  54  94 CALM      30.07R
$$
MNZ078>079-086>088-094>096-011200-
   Southeast Minnesota

CITY           SKY/WX    TMP DP  RH WIND       PRES   REMARKS
ROCHESTER      CLEAR     59  53  80 W7        30.08R
RED WING       CLEAR     57  55  94 CALM      30.03R
STANTON        CLEAR     58  55  88 S3        30.04R
DODGE CENTER   CLEAR     57  54  88 W6        30.07R
WINONA         CLEAR     59  55  88 CALM      30.05R
AUSTIN         CLEAR     54  54 100 CALM      30.07R
PRESTON        CLEAR     60  56  88 CALM      30.07S
$$
ABBREVIATIONS USED IN REMARKS
   TC - TEMPERATURES IN CELSIUS
  WCI - WIND CHILL INDEX
   HX - HEAT INDEX
  VSB - VISIBILITY
$$



USA.gov is the U.S. government's official web portal to all federal, state and local government web resources and services.